Theta_e
287 287 287 287 287 287 287 287 287 287 287 287 287 287 287 287 287 286 286 286 286 286 286 286 286 286 286 286 286 286 286 286 286 286 286 286 286 286 285 285 285 285 285 285 285 286 286 286 286 285 285 284 285 286 287 289 290 290 290 290 290 290 290 288 287 288 289 290 291 291 291 292 292 292 293 293 293 294 294 295 295 295 295 294 294
288 288 288 288 288 288 287 287 287 287 287 287 287 287 287 286 286 286 286 286 286 286 286 286 286 285 285 285 285 285 285 285 285 285 284 284 284 284 284 284 284 284 284 284 284 284 285 285 285 286 286 285 285 284 284 286 287 289 290 289 289 289 289 288 288 288 288 289 290 290 291 291 291 292 292 292 293 293 293 294 294 294 295 295 294
288 288 288 288 288 288 288 287 287 287 287 287 286 286 286 286 286 286 286 286 286 285 285 285 285 285 285 284 284 284 284 284 284 283 283 283 283 283 283 283 283 283 283 283 283 283 283 283 284 284 285 285 285 285 285 284 285 286 288 288 289 289 289 289 288 288 288 289 289 290 290 290 290 291 291 292 292 292 293 293 293 294 294 294 294
288 288 288 288 287 287 287 287 286 286 286 286 286 286 286 285 285 285 285 285 285 285 285 284 284 284 284 284 284 283 283 283 283 282 282 282 282 282 282 282 282 282 282 282 282 282 282 282 283 283 284 284 284 285 285 285 284 285 285 286 287 288 288 288 288 288 288 288 288 289 289 289 290 290 290 291 291 291 292 292 293 293 293 293 293
288 288 287 287 287 286 286 286 286 286 286 286 286 286 286 285 285 285 285 284 284 284 284 284 284 283 283 283 283 283 282 282 282 282 282 282 282 282 282 282 282 282 281 281 282 282 282 282 282 283 283 283 284 284 284 285 285 284 284 285 285 287 287 288 288 288 287 287 287 288 288 288 289 289 289 290 290 291 291 291 292 292 292 292 292
288 288 288 288 288 288 287 287 287 287 287 287 286 286 286 286 285 285 284 284 284 284 284 283 283 282 282 282 281 281 281 281 281 281 281 281 281 281 281 281 281 281 281 281 282 282 282 282 282 282 283 283 283 283 283 284 284 284 284 284 284 285 286 287 287 287 287 287 287 287 288 288 288 288 289 289 289 290 290 290 291 291 291 291 292
289 289 289 289 288 288 288 288 288 287 287 287 286 286 285 285 284 284 283 283 283 283 283 282 282 281 281 281 280 280 280 280 280 280 280 281 281 281 281 281 281 281 281 281 281 282 282 282 282 282 282 282 283 283 283 283 283 284 284 284 284 284 285 286 286 286 286 287 287 287 287 287 288 288 288 288 288 289 289 289 289 290 290 290 291
289 288 288 288 288 288 288 288 288 287 287 286 286 285 284 284 283 283 282 282 282 281 281 280 280 280 279 279 279 279 279 279 279 279 280 280 280 280 281 281 281 281 281 281 281 281 281 281 281 282 282 282 282 282 283 283 283 283 284 284 284 284 284 285 285 286 286 286 286 287 287 287 287 287 288 287 287 287 288 288 288 288 289 289 290
288 287 287 287 287 287 287 287 286 286 286 285 285 284 284 283 283 282 282 281 280 280 279 279 278 278 278 277 277 277 277 278 278 278 279 279 280 281 281 281 281 281 281 281 281 281 281 281 281 281 281 282 282 282 282 282 283 283 283 283 284 284 284 285 285 285 285 285 286 286 287 287 287 287 287 287 286 287 288 287 287 288 288 288 289
287 287 286 286 286 285 285 284 284 284 283 283 283 282 282 282 281 281 281 280 279 279 278 277 277 276 276 276 276 276 276 276 276 277 279 279 280 280 280 280 280 280 280 280 280 280 280 280 281 281 281 281 281 282 282 282 282 283 283 283 284 284 284 284 284 285 285 285 285 286 286 286 287 287 287 287 287 287 287 287 287 288 288 287 288
285 285 285 284 284 283 282 282 281 281 280 280 280 280 279 279 279 278 278 278 278 277 276 276 276 275 274 274 274 274 275 275 275 276 277 278 278 278 278 278 279 279 279 279 279 279 280 280 280 280 280 281 281 281 281 282 282 282 283 283 284 284 284 284 284 285 285 285 285 286 286 286 287 287 287 288 288 287 287 287 287 287 287 287 287
283 283 283 283 282 281 280 280 279 279 278 278 277 277 276 276 276 276 276 276 276 275 275 274 274 273 272 272 273 273 273 273 273 274 275 275 276 277 277 277 277 277 277 278 278 278 278 279 279 279 279 280 280 280 281 281 281 282 282 283 284 284 284 285 285 285 285 285 285 285 285 286 286 287 287 287 288 288 287 287 286 286 287 287 287
282 281 281 280 279 279 278 278 277 277 276 276 275 275 274 274 274 274 274 274 273 273 273 272 272 271 270 270 271 271 271 271 271 272 273 273 274 275 275 275 275 275 276 276 276 277 277 277 277 278 278 278 279 279 279 280 280 281 281 282 282 283 283 284 285 285 285 286 285 285 285 286 286 286 287 287 288 288 287 286 286 286 286 287 287
280 279 278 277 277 276 276 276 275 275 275 274 274 274 273 273 273 272 272 272 271 271 271 270 270 269 268 268 268 269 269 268 269 270 271 272 273 273 273 274 274 274 274 274 274 274 275 275 276 276 276 277 277 277 278 279 279 280 280 281 281 281 282 282 283 284 284 285 286 286 286 286 286 286 286 287 287 288 287 287 286 286 286 286 287
278 277 276 275 275 275 274 274 273 273 273 273 272 272 272 272 272 271 271 270 270 269 269 268 268 267 267 266 266 266 267 267 267 268 269 270 271 272 272 272 272 271 271 272 272 272 273 273 274 274 275 275 275 276 277 278 279 279 280 280 280 281 281 281 281 282 282 283 284 285 285 286 286 286 286 286 287 287 287 288 287 287 287 287 287
277 276 275 274 274 273 273 272 272 271 271 271 271 271 271 271 270 270 270 269 268 267 266 266 265 265 265 264 264 264 265 265 265 267 268 269 270 270 270 270 270 270 270 270 270 271 271 272 272 272 273 273 274 275 276 277 278 278 279 279 280 280 280 281 281 281 282 282 282 283 283 284 285 285 286 286 286 287 287 287 288 287 286 286 286
275 274 273 273 272 272 272 271 271 270 270 270 270 270 269 269 268 267 267 267 266 265 265 264 263 263 263 263 262 263 263 264 264 266 267 268 269 269 269 269 269 270 270 270 270 271 271 271 272 272 273 273 274 275 276 276 277 278 278 279 279 280 280 280 281 281 282 282 282 283 283 283 284 284 285 286 286 287 287 287 287 287 286 286 286
273 272 272 271 271 271 270 270 270 270 270 269 269 269 267 267 266 265 264 264 264 263 263 262 262 262 262 262 262 262 262 263 263 265 266 267 268 268 268 269 269 269 270 270 270 270 270 271 271 272 272 273 273 274 275 276 277 277 278 278 279 280 280 280 280 280 281 281 282 283 283 284 284 285 285 286 286 287 287 287 287 287 287 286 286
271 270 270 269 269 269 269 269 269 269 269 269 268 267 266 265 264 263 263 262 262 262 262 261 261 261 261 261 261 261 262 262 262 263 265 266 267 268 268 268 268 269 269 269 269 269 269 269 270 270 271 272 273 274 275 276 276 277 278 278 278 279 279 279 280 280 280 281 281 282 282 283 283 284 285 286 286 287 288 288 288 288 287 287 287
269 269 268 268 268 268 268 269 268 268 268 268 267 266 265 264 263 262 262 261 261 261 261 261 261 261 261 261 261 261 261 261 262 263 264 266 267 267 268 268 268 268 268 268 269 269 269 269 270 270 271 272 272 273 274 274 275 276 277 277 278 279 279 278 279 279 279 280 281 281 282 282 282 283 284 284 285 286 287 288 288 288 288 287 287
268 267 267 268 268 268 268 268 268 267 266 266 266 265 264 263 262 262 261 261 261 260 260 260 260 260 261 261 261 261 261 261 261 262 264 265 266 267 268 268 268 268 269 269 269 269 270 270 270 270 271 271 272 272 273 273 274 274 275 276 276 277 278 278 278 279 279 279 280 281 281 282 282 282 283 283 284 285 286 287 287 288 288 288 287
267 267 267 267 268 268 268 267 266 266 265 264 264 263 263 262 261 261 261 260 260 260 260 260 260 260 260 260 260 260 261 261 262 262 264 265 266 267 268 268 269 269 269 270 270 270 270 270 270 270 271 271 272 272 273 273 274 274 275 275 275 276 277 277 278 278 279 279 280 281 282 282 282 282 283 283 283 284 284 285 286 287 287 288 288
266 266 267 267 267 267 266 266 265 264 264 263 262 262 261 261 261 261 260 260 260 260 260 260 260 260 260 260 260 260 261 262 262 263 264 265 266 267 268 269 269 270 270 270 270 270 270 270 270 270 271 271 272 273 274 274 274 275 275 275 275 275 276 276 277 277 278 278 279 280 281 282 283 283 283 283 283 284 284 284 285 286 286 287 287
266 266 266 266 266 266 265 264 264 263 262 262 261 261 261 261 260 260 260 260 260 260 260 260 259 259 260 260 260 261 262 262 263 263 264 265 266 267 268 269 270 270 270 270 270 270 270 270 271 271 272 273 273 274 274 274 274 274 274 274 274 275 275 275 276 276 276 277 277 278 279 280 282 283 283 283 283 284 284 284 285 285 286 286 286
266 265 265 265 265 264 264 263 263 262 261 261 261 260 260 260 260 260 260 260 259 259 259 259 259 259 259 260 260 261 262 263 263 264 265 265 266 267 268 269 270 270 270 270 270 270 271 271 272 273 273 273 273 272 272 272 273 273 273 274 274 274 274 274 274 275 275 276 276 277 278 279 280 282 283 284 284 284 284 284 284 285 285 285 286
264 264 265 264 264 263 263 262 262 261 261 260 260 260 260 260 260 259 259 259 259 259 259 259 259 259 260 260 261 262 263 264 264 265 265 266 266 267 268 268 269 270 270 270 271 271 271 272 272 272 272 272 272 272 272 272 273 273 273 273 273 273 273 273 273 274 274 275 275 276 277 278 279 280 282 283 284 284 284 284 284 284 285 285 285
263 264 264 263 263 263 262 261 261 260 260 260 260 260 260 260 259 259 259 259 259 259 259 259 260 260 261 262 263 263 264 265 266 266 266 267 267 267 268 268 269 269 269 270 270 270 270 270 271 271 272 272 272 272 272 272 272 272 272 272 272 272 272 272 273 273 274 274 275 276 276 277 278 279 281 283 284 284 284 284 284 284 284 285 284
263 263 263 262 262 262 261 261 260 260 260 260 260 260 260 260 259 259 260 260 260 260 260 261 261 262 262 263 264 264 266 267 267 267 267 268 268 269 269 269 270 270 270 270 270 270 271 271 271 271 272 272 272 272 272 272 272 272 272 272 272 272 272 272 272 273 273 274 275 275 276 277 278 279 281 283 284 285 285 284 284 284 284 284 284
262 262 262 262 262 261 261 260 260 260 260 260 259 259 260 259 259 260 261 261 261 262 262 263 264 264 265 265 266 266 267 268 268 268 269 270 270 270 271 271 271 272 272 272 272 272 272 272 272 272 271 271 271 271 271 271 271 271 271 271 271 271 271 271 272 272 273 273 274 275 276 277 278 280 281 282 284 285 285 284 284 284 284 283 283
261 262 261 261 261 261 260 260 260 259 259 259 259 259 260 260 260 261 261 262 263 264 265 265 266 266 267 267 267 267 268 268 268 269 270 270 271 271 271 272 272 273 273 273 273 273 272 272 271 271 270 270 270 269 269 269 269 269 269 270 270 270 270 271 271 271 272 273 274 275 276 277 278 279 281 282 284 284 284 284 284 284 283 283 282
261 261 261 260 260 260 259 259 259 259 259 259 258 258 259 260 261 261 261 262 263 263 264 265 266 266 267 267 267 267 267 268 268 269 270 270 271 271 271 271 272 273 273 273 272 271 271 270 269 269 268 268 268 268 268 268 268 268 268 268 269 269 270 270 270 271 272 273 274 275 276 277 278 279 281 283 284 284 284 284 283 283 283 282 282
260 260 260 260 260 259 259 259 259 259 258 258 258 258 258 259 260 260 260 261 261 262 263 264 264 265 265 266 266 266 267 267 268 269 269 270 270 271 271 272 272 273 272 271 270 269 268 267 267 266 266 266 266 266 266 267 267 267 267 268 268 269 269 269 270 271 271 272 273 274 274 275 277 279 282 283 284 283 283 283 283 283 282 282 282
259 259 260 259 259 259 259 259 258 258 258 258 258 258 258 258 258 259 259 260 260 261 261 262 263 263 264 264 265 266 267 267 268 268 269 269 270 271 271 271 270 270 269 268 267 266 266 266 265 265 266 266 266 266 266 266 267 267 267 268 268 269 269 269 270 270 271 272 273 274 275 275 277 279 282 284 283 283 282 282 282 282 282 281 281
260 259 259 259 259 259 258 258 258 258 258 258 258 258 258 258 258 259 259 259 259 259 260 261 261 262 263 264 264 265 266 266 267 268 269 269 269 269 268 267 266 266 266 265 265 265 265 265 265 265 266 266 266 266 266 266 267 267 267 268 268 268 269 269 270 270 271 272 272 273 274 275 277 279 282 282 282 282 281 281 281 281 281 281 281
260 259 259 258 258 258 258 258 258 258 258 258 258 258 258 258 258 258 258 259 259 259 259 260 260 261 262 263 264 264 265 265 267 268 268 267 267 266 264 263 263 263 263 263 264 264 265 265 265 265 265 266 266 266 266 266 267 267 267 268 268 269 269 270 270 271 271 272 273 274 275 276 277 280 281 281 281 281 280 280 280 280 280 280 280
260 259 259 259 258 258 258 257 258 258 258 258 258 258 258 258 258 258 258 258 259 259 259 260 260 261 261 262 262 263 264 265 266 266 265 264 264 263 261 261 261 261 262 262 263 263 263 264 264 264 264 264 265 265 265 266 266 267 267 268 268 269 270 270 271 271 272 273 273 274 275 276 277 279 281 281 281 280 280 280 279 279 279 280 280
259 259 259 259 258 258 258 258 258 258 258 258 258 258 258 258 258 258 258 258 259 259 259 260 260 260 261 261 261 262 264 265 265 264 262 262 262 261 260 260 261 261 261 261 262 262 262 262 263 263 263 263 264 264 264 265 265 266 267 267 268 269 270 270 271 272 272 273 273 274 275 276 278 279 280 280 280 280 280 280 279 279 279 279 279
260 259 259 258 258 257 258 258 258 258 258 258 257 257 257 258 258 258 258 258 259 259 259 259 260 260 260 261 261 263 264 264 263 262 261 261 261 260 260 260 260 260 261 261 261 261 262 262 262 262 263 263 263 264 264 264 265 265 266 267 268 269 270 271 271 272 273 273 274 274 276 277 278 279 279 280 280 279 279 279 278 278 278 278 278
260 260 259 258 257 257 257 257 257 258 257 257 257 257 257 258 258 258 258 258 258 258 259 259 259 260 260 261 262 264 264 263 261 261 260 260 261 260 261 260 260 261 261 261 261 261 262 262 262 263 263 263 263 264 264 265 265 266 266 267 268 269 271 272 272 272 273 273 274 275 276 277 278 279 279 279 279 279 279 278 278 278 277 277 277
260 260 260 258 257 257 257 257 257 257 257 257 257 257 258 257 258 258 258 258 258 258 259 259 260 260 260 261 262 264 264 262 261 260 260 260 261 261 261 261 261 261 261 261 262 262 262 262 263 263 263 264 264 265 265 266 266 267 268 268 269 270 271 273 273 273 273 274 274 275 276 277 278 279 279 279 279 279 278 278 278 277 276 276 276
260 260 260 259 258 258 258 258 257 257 257 257 257 258 257 258 258 258 258 258 258 258 259 259 260 260 260 261 263 264 263 261 260 260 260 260 260 261 261 261 261 261 261 262 262 262 263 263 263 264 264 265 265 266 266 267 267 268 268 269 270 271 272 273 274 274 274 275 275 276 277 278 279 279 279 279 278 278 278 277 277 276 276 275 275
260 260 260 259 259 258 258 257 257 257 257 257 258 258 258 258 258 258 258 258 258 258 259 259 260 260 261 261 261 262 261 260 259 260 260 260 260 260 261 261 261 262 262 262 263 263 263 264 264 265 265 266 266 266 267 267 268 268 268 269 271 272 273 274 275 275 275 276 276 276 277 278 278 278 278 278 277 277 277 276 275 275 275 274 274
260 260 259 259 259 259 258 257 257 257 257 258 258 258 258 258 258 258 258 258 258 258 259 259 259 260 261 261 261 260 260 259 259 259 260 260 260 260 261 261 261 262 262 263 263 263 264 264 265 265 266 266 267 267 267 267 268 268 268 269 270 271 272 273 274 275 275 276 276 276 277 277 277 277 277 277 276 276 275 275 274 274 274 273 273
260 260 260 260 259 259 258 257 257 257 257 258 258 259 258 258 258 258 258 258 258 258 258 259 259 259 260 261 261 260 260 259 259 259 259 259 260 260 261 261 261 262 263 263 263 264 264 265 265 266 266 267 267 267 267 267 268 268 268 268 269 269 270 271 272 273 275 275 275 275 275 276 276 276 275 275 275 274 274 273 273 273 273 272 272
260 260 261 260 260 258 257 257 257 258 259 259 259 259 259 258 258 258 258 258 258 258 258 259 259 259 259 260 260 260 259 259 259 259 259 259 260 260 261 261 262 262 263 263 263 264 264 265 265 266 266 267 267 268 268 268 268 268 268 268 269 269 270 270 271 272 273 274 275 274 274 274 274 274 274 274 273 273 273 272 272 272 272 271 271
261 261 261 260 259 258 257 257 258 259 260 260 260 260 259 259 259 259 258 258 258 258 258 259 259 259 259 259 259 259 259 259 259 260 260 260 260 261 261 261 262 263 263 264 264 264 265 265 265 266 266 267 268 268 268 268 268 268 268 268 269 269 270 270 271 272 272 273 273 274 273 273 273 273 272 272 272 272 272 272 272 271 271 270 270
261 261 260 260 259 258 257 257 259 260 260 260 259 259 259 259 259 259 259 258 258 259 259 260 260 260 260 260 259 259 259 260 260 260 260 260 261 261 262 262 262 263 264 264 265 265 265 265 265 266 267 267 268 268 269 269 268 268 268 269 269 269 270 270 271 271 271 272 272 272 272 272 272 272 272 272 272 271 271 271 271 270 270 270 270
260 260 260 259 259 258 258 258 260 261 261 260 260 259 259 259 259 259 259 259 259 259 260 260 260 260 260 260 260 260 260 260 260 260 261 261 261 262 262 262 262 263 264 264 265 265 265 265 266 266 266 267 268 268 269 269 269 269 268 268 269 269 270 270 270 270 271 271 271 271 271 271 271 271 271 271 271 271 270 270 270 270 270 270 270
260 260 259 259 259 258 258 259 260 261 260 260 260 260 259 259 259 259 259 259 260 260 260 260 260 260 260 260 260 260 260 261 261 261 261 262 262 262 262 262 263 263 263 264 264 265 266 266 266 266 266 267 267 268 269 269 269 269 269 269 269 269 269 269 270 270 270 270 270 270 271 271 270 270 270 270 270 270 270 269 269 269 269 269 269
260 260 259 259 259 259 259 260 260 261 260 260 260 260 259 259 259 259 259 260 261 261 261 261 260 260 260 260 260 260 261 261 261 261 261 262 262 262 262 263 263 263 263 263 264 264 265 266 266 266 266 267 267 267 268 269 269 269 269 269 268 268 269 269 269 269 270 270 270 270 270 270 270 270 269 269 269 269 269 269 269 269 268 268 267
260 260 260 259 259 259 260 260 260 260 260 260 259 259 259 259 260 260 260 260 260 261 261 261 261 261 260 260 260 260 261 261 261 261 262 262 262 262 263 263 263 263 263 263 264 264 264 265 266 266 267 267 267 267 267 268 268 268 269 269 269 268 268 268 269 269 269 269 269 269 269 269 269 269 269 269 269 268 268 268 268 268 267 267 266
Wind_Speed
9 8 8 8 7 6 6 7 7 8 10 10 11 12 12 13 14 14 15 17 17 19 21 22 23 24 25 26 27 28 29 30 30 31 31 31 31 31 31 31 30 30 29 28 26 25 26 27 27 26 26 27 26 24 24 24 23 24 24 25 26 26 26 23 16 17 25 26 27 30 29 28 30 32 32 33 34 34 37 40 41 42 43 44 44
7 6 6 7 7 7 9 10 10 11 13 13 13 13 13 14 14 15 17 18 19 20 22 24 25 26 27 28 29 29 30 31 31 31 31 32 32 32 32 31 31 31 30 30 29 28 28 29 28 27 26 28 29 28 27 26 24 25 25 25 27 28 26 26 22 18 22 25 25 27 29 27 30 32 31 32 34 34 36 39 40 42 44 45 46
4 4 5 5 6 6 8 8 8 10 11 12 13 13 14 14 15 16 18 19 20 21 23 24 26 27 28 29 30 31 32 32 32 32 32 32 32 32 32 32 31 31 30 30 31 30 30 31 31 30 28 28 30 29 29 29 27 26 27 26 27 29 28 27 26 23 23 26 25 25 27 28 30 32 30 31 33 33 36 39 40 41 43 44 46
1 3 3 4 5 6 7 7 7 9 9 10 11 12 13 14 15 16 17 19 20 21 22 23 25 27 28 30 31 32 33 34 34 33 32 31 31 32 33 32 32 31 31 31 31 31 31 32 32 32 30 30 31 31 30 30 30 28 28 28 27 29 30 28 28 28 26 26 27 26 26 28 31 32 30 30 32 33 35 38 39 41 43 44 45
5 6 6 7 7 8 9 9 10 11 11 12 13 14 15 16 16 17 18 20 21 22 24 25 26 28 29 30 31 32 32 33 33 34 33 31 31 31 31 31 31 32 33 33 32 31 31 31 32 32 31 30 31 33 31 31 32 31 30 31 30 29 30 28 29 30 28 28 30 29 26 27 30 31 30 30 32 33 34 37 39 40 41 43 44
5 5 6 7 8 10 11 12 14 15 15 16 17 18 18 19 19 20 21 23 25 26 27 29 29 30 31 31 31 32 32 32 32 33 33 31 30 30 30 31 31 32 33 34 33 33 32 32 34 33 32 31 32 33 33 32 32 32 32 33 32 30 30 30 29 29 29 30 31 30 27 26 28 30 30 30 31 32 33 34 36 38 39 41 43
4 5 7 9 10 12 14 15 16 17 18 18 19 20 20 21 21 22 23 25 27 29 30 31 32 31 31 32 32 32 32 33 33 32 32 30 29 29 30 31 32 32 33 33 34 35 35 35 35 35 34 33 33 34 34 33 32 33 33 33 33 31 29 30 30 28 28 29 29 30 28 26 26 28 30 28 28 31 32 30 29 33 37 39 41
5 7 9 11 13 14 16 17 18 19 20 21 22 23 23 24 24 25 26 27 28 29 30 31 32 32 31 31 31 31 32 33 33 31 30 29 28 29 30 31 32 32 33 34 35 35 36 37 37 38 37 37 36 36 35 35 33 33 34 33 32 31 30 30 29 27 27 27 27 29 28 26 25 25 26 23 22 27 31 28 27 31 33 35 38
7 9 11 12 14 15 17 18 19 21 22 23 25 26 26 27 28 29 30 30 31 31 32 32 33 34 34 33 33 32 32 33 32 28 27 28 28 29 30 30 31 32 34 35 36 36 36 37 37 38 39 39 39 39 39 38 36 35 36 35 32 30 30 30 28 27 26 24 25 27 26 24 24 23 22 21 22 26 28 25 28 33 32 30 36
9 10 11 13 14 16 17 19 20 22 23 24 25 26 27 28 29 30 31 32 33 34 35 35 35 34 34 35 35 34 34 34 31 26 24 25 27 28 30 31 32 33 34 35 36 37 36 36 37 38 38 39 39 40 40 40 40 39 39 37 35 33 31 30 28 27 25 23 24 25 22 21 25 26 23 24 25 26 26 23 26 31 28 23 29
9 10 11 13 15 17 19 20 21 21 22 23 24 25 26 28 29 31 32 33 35 36 36 36 35 34 32 34 35 36 37 35 30 26 25 26 26 28 30 32 33 33 34 35 36 38 38 38 37 37 37 38 38 39 39 39 40 39 39 38 37 36 34 32 31 29 27 24 26 27 22 22 29 31 26 25 26 25 26 26 25 25 22 15 17
10 12 13 15 17 18 19 20 20 21 21 23 24 26 28 30 31 33 34 34 35 36 36 35 35 33 31 33 34 35 37 36 30 28 28 28 28 29 31 33 35 36 36 37 38 39 40 40 40 39 39 38 37 37 37 38 39 38 38 38 38 38 37 36 35 33 31 28 27 28 27 27 32 33 29 26 27 26 25 26 25 25 23 18 17
12 13 14 15 16 17 19 20 21 22 23 25 27 29 31 32 33 33 34 34 34 35 35 34 33 32 30 31 34 36 38 37 33 30 30 30 30 30 32 34 36 37 38 39 39 40 40 41 42 43 42 40 38 38 38 38 39 38 38 38 38 39 39 38 38 38 37 34 30 31 34 33 32 35 36 30 26 25 23 24 26 26 25 23 25
13 14 14 14 15 16 17 19 21 24 26 28 30 31 32 33 33 33 33 34 34 34 34 34 33 31 30 31 34 38 40 38 33 30 30 31 31 31 32 35 36 37 39 39 40 40 41 41 41 44 45 43 41 41 39 38 38 38 38 38 39 40 40 39 39 39 40 39 37 37 41 40 37 41 43 36 28 26 26 25 25 26 27 29 32
13 14 14 14 15 16 19 21 23 26 27 28 30 31 31 32 33 33 33 33 33 33 33 33 33 32 31 32 35 39 41 36 31 30 30 30 31 30 31 33 36 38 40 40 39 39 40 40 40 41 43 43 41 39 37 37 37 38 38 38 39 39 40 41 41 41 41 41 41 42 44 45 44 45 46 41 34 32 32 30 28 27 28 29 31
13 13 14 15 17 19 21 24 26 27 28 29 29 30 31 31 32 32 33 34 33 32 32 31 32 33 34 33 34 39 41 35 29 29 30 30 30 30 30 33 36 38 39 39 38 38 38 38 39 40 41 43 42 38 37 37 38 39 39 39 40 40 41 43 43 43 43 43 44 45 46 48 48 47 48 46 40 37 35 31 29 28 25 22 22
13 13 15 17 19 21 22 25 26 27 27 28 29 30 30 31 31 31 32 34 33 32 32 32 32 32 34 34 33 37 41 35 29 29 30 30 30 30 30 31 33 33 33 34 34 34 33 33 34 36 37 37 37 35 35 36 36 38 38 38 38 38 41 43 42 41 41 41 43 44 46 48 49 49 50 49 46 42 34 28 28 27 22 15 13
12 14 16 18 20 21 22 23 24 25 26 27 28 30 30 30 31 29 29 32 33 32 32 34 34 31 32 34 32 34 38 36 30 29 31 30 29 30 30 30 30 30 30 30 29 28 29 28 28 31 33 34 35 35 34 35 36 37 37 35 35 36 38 39 39 40 41 41 42 43 43 44 46 46 48 47 45 42 35 31 31 28 21 16 14
13 15 17 19 20 20 20 21 22 24 26 27 28 29 30 30 30 29 28 30 32 32 31 32 34 33 31 33 32 31 35 37 32 29 31 30 29 29 30 30 31 30 29 29 29 29 30 31 31 32 33 34 34 34 33 33 34 36 35 33 33 35 37 37 36 38 39 39 39 40 41 42 43 44 46 45 43 41 38 37 35 29 24 22 21
14 16 18 19 19 19 19 20 21 23 25 27 28 28 30 30 31 31 31 30 31 32 31 31 34 34 32 32 32 31 33 36 33 29 29 30 28 29 31 31 30 30 30 30 31 31 31 32 30 29 29 31 32 33 33 33 34 36 35 33 31 33 37 39 40 41 41 39 39 39 40 42 42 42 43 43 43 42 41 41 39 35 29 26 24
15 17 18 19 19 19 19 20 21 22 23 25 28 28 28 29 30 31 32 32 31 32 32 31 32 34 32 31 32 32 32 33 32 29 29 29 28 29 31 31 30 32 32 31 32 31 29 29 28 28 30 32 32 33 34 33 34 36 36 36 37 39 40 40 40 41 42 42 42 41 41 41 41 41 41 41 41 41 41 41 42 41 37 32 27
16 17 18 18 18 19 19 20 21 22 23 24 26 29 28 28 29 30 31 31 31 31 32 32 32 34 33 32 33 33 32 31 31 30 29 29 29 29 31 31 31 32 32 31 30 30 29 29 30 31 32 33 33 34 35 35 35 35 36 37 39 42 43 42 41 40 39 38 38 39 39 39 39 39 38 39 40 40 40 41 42 43 43 40 35
16 17 18 18 19 19 20 21 21 22 23 23 25 28 29 28 28 28 28 29 31 31 31 31 31 33 34 33 33 33 33 32 32 31 30 30 30 30 31 31 31 31 32 31 31 31 32 33 33 33 34 35 35 36 36 36 36 36 36 37 38 39 41 41 40 38 36 35 34 35 36 36 36 36 36 37 38 39 39 40 41 42 41 40 40
17 17 18 18 19 20 21 22 22 22 23 23 24 26 28 28 28 27 26 27 29 30 30 31 31 31 32 34 34 34 34 33 33 33 31 30 30 30 30 30 30 30 31 32 32 33 35 36 36 35 35 35 36 36 36 36 35 35 35 36 36 37 37 37 37 34 33 32 31 32 34 35 35 34 34 35 37 37 38 38 38 38 38 37 37
17 17 18 19 20 21 22 23 23 23 22 22 23 25 27 28 27 26 26 27 27 28 30 30 29 29 30 32 34 35 35 34 34 34 32 31 31 32 31 30 30 30 31 33 34 35 36 36 37 36 36 36 36 36 35 34 33 33 34 34 34 34 34 33 34 33 31 31 31 31 34 37 38 37 36 36 36 35 34 34 34 34 34 34 34
17 17 19 20 21 22 23 24 24 24 22 22 23 24 26 27 27 26 27 28 27 27 29 29 28 28 29 30 32 34 34 33 32 33 33 33 34 35 34 33 32 32 33 34 35 36 36 37 37 37 37 37 35 34 34 34 33 34 35 34 34 34 33 33 33 32 31 32 32 33 35 39 41 42 41 37 35 34 32 30 30 30 31 31 30
17 18 19 21 22 22 24 25 25 24 24 23 24 25 26 26 25 25 28 28 26 26 28 27 26 25 26 29 31 31 31 32 32 32 33 34 35 35 35 35 34 34 34 35 36 37 38 37 36 36 36 35 34 33 34 34 34 34 33 32 32 32 32 33 34 34 33 33 35 35 37 40 42 43 42 36 33 33 32 30 28 27 28 28 25
17 19 20 21 22 23 23 24 25 25 25 25 25 26 27 27 25 25 28 29 27 26 28 28 28 28 29 33 35 32 31 32 32 32 32 33 34 34 33 32 32 31 32 34 35 35 34 33 31 30 30 30 29 29 30 30 31 31 31 30 31 31 31 32 33 34 34 35 36 36 38 40 39 39 40 37 31 29 30 30 28 25 25 24 21
17 19 20 21 23 23 24 24 24 25 26 26 26 26 28 27 25 25 29 28 26 26 29 31 32 31 31 31 31 30 30 31 32 32 33 34 36 35 34 33 33 32 32 34 33 30 26 25 24 24 24 24 24 24 25 26 27 29 30 30 30 31 31 32 33 34 35 35 35 34 35 36 36 36 37 36 31 28 28 28 27 25 23 21 19
18 20 20 22 23 23 24 24 24 24 25 26 27 28 29 28 23 22 26 28 26 25 27 29 30 30 30 30 29 28 29 31 32 33 34 35 36 36 36 36 36 34 34 35 31 26 23 22 22 22 23 24 23 24 25 25 26 27 29 30 30 31 31 32 34 35 35 35 34 33 33 33 33 36 36 33 30 27 26 27 25 23 21 19 17
19 20 21 22 23 23 23 24 24 24 25 25 26 27 30 32 29 23 21 24 26 26 26 27 28 28 29 30 29 29 30 32 32 33 33 33 34 35 35 36 36 34 34 31 25 22 21 21 22 24 25 25 25 25 27 27 28 28 29 28 29 30 30 32 34 33 33 32 32 31 31 28 28 35 36 31 27 23 24 25 23 22 21 19 17
18 20 21 21 22 22 22 23 23 24 24 25 25 25 26 30 34 31 25 22 24 26 26 25 26 27 27 28 29 30 31 32 32 32 32 32 32 32 33 35 33 31 30 26 22 21 23 23 23 25 25 24 25 27 28 28 29 30 29 28 28 29 30 32 33 32 32 31 30 30 29 25 28 34 33 27 23 19 20 21 21 20 20 19 19
16 18 20 20 21 21 22 22 22 23 23 24 25 24 23 24 28 33 33 30 27 25 23 22 24 26 27 27 27 28 29 30 30 30 30 30 30 30 31 31 29 25 23 21 21 22 23 23 24 25 25 25 27 28 29 30 31 31 30 29 29 30 32 34 34 33 32 31 29 28 27 25 29 32 25 21 21 20 20 21 21 21 19 17 16
15 17 18 18 19 21 21 21 21 22 22 23 23 23 24 23 24 27 31 32 31 28 25 23 24 26 28 27 25 26 27 28 28 28 28 28 27 27 28 29 28 24 21 18 19 21 22 22 23 25 26 27 29 30 31 32 33 32 32 32 32 33 35 36 34 32 31 30 30 29 27 26 30 29 19 15 13 14 16 18 19 19 17 15 14
15 16 16 16 17 19 20 20 20 21 21 22 21 22 23 24 24 25 26 27 28 30 31 29 26 26 26 26 25 26 27 28 27 26 26 26 25 26 26 26 27 26 24 22 22 22 22 22 24 26 27 28 30 31 31 32 33 32 32 32 32 33 34 35 33 30 29 29 28 27 25 26 29 25 16 13 11 11 10 12 14 15 15 15 14
15 16 16 16 16 17 18 19 19 19 19 20 21 22 23 23 23 24 25 25 26 28 31 33 32 27 22 21 24 27 27 26 26 25 24 23 23 23 23 23 23 24 25 25 25 24 24 25 26 28 29 29 30 31 31 32 32 32 31 32 31 31 31 32 31 29 28 27 26 25 25 26 27 21 11 9 13 14 12 11 11 12 14 15 15
15 15 16 15 16 17 18 18 18 18 18 19 20 21 22 22 22 23 24 24 25 26 28 32 34 31 27 27 30 30 27 24 23 22 22 23 24 24 22 21 22 22 23 24 25 25 27 28 28 29 30 30 31 32 33 33 33 33 33 33 32 31 31 32 32 30 27 26 25 25 25 26 24 18 11 7 8 11 13 14 14 13 14 16 15
14 14 14 14 15 16 16 17 18 17 18 19 19 20 20 21 21 22 22 23 24 25 26 28 29 29 31 33 36 34 30 28 27 26 26 27 27 26 25 23 22 22 23 24 25 25 27 30 30 30 31 32 33 34 35 34 34 34 33 32 31 31 31 31 30 28 25 23 23 24 24 23 20 16 13 11 10 10 11 13 14 14 14 15 13
13 13 13 13 13 13 14 16 17 17 17 18 19 19 19 20 20 21 22 23 23 23 24 25 25 26 29 33 35 34 32 31 32 32 32 31 30 28 27 26 25 24 25 26 27 27 29 31 32 33 33 33 34 35 35 35 35 35 33 31 28 28 28 27 25 23 21 20 21 22 22 22 20 16 15 13 13 13 13 12 13 14 14 15 14
13 13 13 13 12 13 13 13 14 15 16 18 18 18 19 19 20 20 21 22 22 22 22 23 24 26 28 29 30 30 29 29 30 31 31 31 31 31 30 29 28 28 28 29 30 30 31 32 34 34 34 34 34 34 34 34 33 33 32 29 26 24 23 23 22 20 19 19 20 21 20 20 19 17 16 15 15 15 15 15 15 16 16 14 14
13 13 14 13 12 12 12 12 13 14 15 16 16 17 18 19 19 20 21 20 21 21 22 22 24 26 26 25 25 24 24 25 27 28 28 29 30 30 30 30 29 30 30 31 31 31 32 33 33 34 34 34 34 33 33 33 31 30 31 29 25 23 22 21 20 18 18 18 19 20 21 20 18 17 16 16 14 13 14 13 14 14 14 13 14
12 13 14 13 12 12 11 12 13 13 14 14 14 15 17 18 18 19 19 19 19 20 21 22 24 26 26 24 24 23 23 24 25 26 26 27 28 28 29 30 30 30 30 31 31 31 32 32 33 33 33 34 34 33 33 32 31 32 33 31 25 20 19 19 18 17 17 18 20 20 20 18 16 15 14 13 13 12 12 12 12 14 14 14 16
12 13 14 13 12 11 10 11 12 12 12 12 13 14 15 16 17 17 18 18 19 19 20 22 24 26 27 26 26 26 26 26 26 26 26 27 27 28 29 29 30 30 30 30 30 30 30 30 31 32 31 32 32 32 31 31 31 31 32 31 29 24 19 14 11 12 14 16 16 15 14 12 12 11 11 11 11 11 11 13 14 14 15 15 16
11 12 13 13 11 10 9 10 11 11 11 11 12 12 13 14 16 17 17 18 19 19 20 21 23 25 26 27 28 28 28 28 27 27 27 27 28 28 29 30 30 30 31 31 31 30 30 30 31 32 31 31 31 32 31 30 29 29 30 30 29 28 26 21 15 10 7 6 5 3 5 6 7 8 9 10 11 12 13 14 15 15 16 17 17
11 12 13 12 11 10 9 9 10 10 10 11 12 12 12 13 15 16 17 18 19 19 20 21 22 24 25 26 27 27 28 28 28 28 28 28 28 28 29 30 30 31 31 31 31 32 31 31 32 32 32 31 31 32 33 32 30 29 29 30 29 27 25 22 18 13 8 4 2 2 4 5 5 7 8 9 11 13 14 15 15 16 16 16 16
10 11 12 12 11 10 10 9 9 9 9 11 12 13 13 14 14 15 15 16 17 18 19 21 22 23 24 25 26 26 27 27 27 28 28 28 28 28 29 30 30 30 30 31 31 31 32 32 33 33 33 33 31 31 32 34 33 31 31 30 29 27 24 21 17 14 11 7 4 4 6 7 8 9 10 11 12 14 15 16 16 16 17 17 17
10 11 11 11 10 10 10 9 9 9 9 10 11 12 13 14 14 14 15 15 16 17 19 20 21 22 23 24 25 25 26 26 26 27 27 28 28 28 28 29 30 30 30 30 30 31 32 33 33 33 34 34 33 31 31 33 34 34 33 32 30 28 25 22 18 15 12 9 7 7 8 10 12 13 13 14 15 16 17 17 17 18 18 19 19
10 11 11 10 10 10 10 9 9 9 9 10 11 12 12 13 13 14 14 15 16 17 18 19 20 21 22 23 23 24 25 25 25 26 26 27 27 27 28 28 29 29 29 29 29 30 30 32 32 33 33 34 35 33 32 32 34 34 34 33 30 27 24 22 19 17 14 11 9 9 10 12 14 14 15 16 17 18 18 19 19 19 19 19 19
10 10 11 10 10 10 10 10 9 9 10 10 11 12 12 13 13 14 14 15 15 16 17 18 19 20 21 22 22 23 23 24 25 26 26 26 27 27 27 28 28 29 29 29 29 29 29 30 31 32 32 33 34 34 33 33 33 34 34 32 30 27 25 22 20 17 14 12 11 11 11 13 14 15 16 17 18 19 20 20 20 20 20 20 20
10 11 11 11 11 11 10 10 10 10 10 10 11 12 12 13 13 14 14 14 15 15 16 17 18 19 20 20 21 22 22 23 23 24 25 25 26 26 27 27 28 29 29 29 28 28 28 27 28 29 30 31 32 32 32 32 33 32 32 31 30 29 26 24 21 18 15 14 13 13 13 14 16 16 16 17 18 19 19 20 20 20 21 20 20
10 11 11 12 11 11 11 11 11 11 10 11 11 12 12 13 14 14 14 14 15 15 16 16 17 18 18 18 19 20 20 21 21 22 23 24 24 25 26 27 27 28 28 28 27 27 27 26 26 26 27 29 30 30 30 30 30 30 29 29 29 29 28 26 23 20 17 15 14 14 15 15 16 17 17 17 18 18 18 19 19 20 20 21 20
Wind_Direction
74 69 62 55 46 37 23 12 8 1 359 359 356 355 353 348 345 341 340 342 339 337 337 335 333 330 328 327 327 328 328 328 329 329 328 328 328 328 329 330 329 328 327 325 324 324 322 320 318 318 320 320 317 316 312 307 302 296 293 289 284 280 273 262 260 276 278 275 275 279 280 278 275 272 271 272 271 271 272 273 274 275 273 273 271
70 59 49 35 24 17 7 1 356 350 348 347 346 344 341 338 334 329 329 332 331 330 330 329 328 326 324 324 324 325 325 325 325 325 325 324 324 323 324 325 324 323 323 322 322 322 319 316 314 313 314 313 312 312 311 309 306 299 295 291 284 282 278 268 263 272 280 278 276 278 279 276 274 273 271 271 271 270 270 270 271 272 272 272 271
59 41 30 19 12 2 351 345 338 334 333 332 332 330 328 327 324 320 320 322 323 324 324 323 323 322 321 320 321 321 322 322 322 321 321 321 320 320 319 320 320 319 318 317 317 317 315 312 310 310 310 308 306 306 306 305 304 298 295 292 284 282 280 272 266 267 276 282 279 277 278 276 274 274 273 272 272 271 270 269 269 270 270 270 269
319 317 316 319 321 318 318 319 315 316 318 316 318 318 316 316 315 313 313 314 316 318 318 317 318 317 316 316 317 317 317 318 318 317 317 316 316 315 315 316 316 315 313 311 310 310 308 306 305 306 306 304 301 301 302 301 300 297 294 291 286 282 280 274 268 267 272 280 281 277 276 275 275 275 275 273 272 270 269 269 269 268 268 268 267
273 279 283 291 303 311 318 322 322 323 323 320 319 318 316 314 313 313 313 312 312 314 314 314 314 314 313 313 313 313 314 314 313 313 313 313 311 310 310 311 311 310 309 307 306 305 303 300 300 301 300 297 296 297 297 297 297 294 291 290 287 284 281 277 272 269 270 274 279 280 277 274 275 275 273 271 270 270 268 268 268 268 268 267 265
275 288 300 312 321 325 326 326 326 325 323 320 318 316 314 312 312 312 312 311 311 312 313 313 313 313 312 312 312 312 312 311 310 309 309 310 308 307 306 305 305 304 303 303 303 302 299 297 296 296 294 290 289 290 291 291 291 290 288 288 287 284 281 277 274 271 269 271 276 280 278 274 273 273 272 269 268 268 267 267 267 267 267 267 265
329 335 335 335 333 330 328 326 324 322 319 317 315 313 311 310 309 309 310 310 310 311 312 312 312 312 312 312 312 312 312 310 308 308 308 308 307 305 304 302 301 300 299 299 299 298 296 295 294 293 291 288 286 286 286 286 286 285 284 285 285 283 280 278 276 272 270 271 274 277 278 275 271 270 272 270 266 265 264 264 266 265 263 264 264
348 343 338 334 329 325 322 319 316 313 311 310 309 308 308 308 308 308 308 308 308 309 310 310 310 311 311 311 311 310 310 308 307 308 309 309 307 305 302 300 298 297 296 294 293 293 292 291 290 290 289 288 287 286 285 284 282 282 282 281 281 279 277 276 275 271 269 270 272 274 277 277 273 270 271 265 258 259 258 256 259 261 260 260 262
335 332 328 323 319 315 311 308 306 304 303 302 302 303 303 303 304 305 305 307 308 308 309 310 310 310 310 310 309 309 307 305 305 307 309 308 306 304 301 298 296 294 293 292 290 288 287 286 286 286 286 286 286 285 284 283 281 279 279 279 278 276 274 272 271 269 268 268 270 273 275 274 272 269 265 256 250 257 261 256 255 260 261 259 260
326 324 320 315 311 308 305 303 302 301 301 301 300 300 301 301 302 303 304 305 307 308 308 309 309 310 310 310 309 308 306 304 305 308 308 306 305 303 300 297 295 292 291 289 288 287 286 284 284 284 284 283 283 282 282 282 281 278 277 277 275 274 272 270 267 266 265 264 267 270 271 272 271 267 263 260 258 260 261 254 252 259 262 260 261
320 317 313 311 309 307 305 304 303 303 302 301 301 302 303 304 305 305 305 306 307 308 309 309 310 311 311 309 308 307 304 304 308 310 309 308 306 303 300 297 294 292 290 288 287 287 286 285 284 284 283 282 282 281 281 280 280 278 276 274 272 270 268 267 266 264 261 260 262 264 265 267 270 269 266 266 264 259 256 253 251 256 257 254 261
319 316 313 310 308 306 305 305 305 306 306 305 306 307 308 309 310 310 309 310 310 310 310 310 310 311 311 309 307 305 303 304 308 310 309 308 306 302 299 296 293 292 290 288 287 287 287 287 286 284 283 282 282 282 282 281 280 279 277 274 272 269 265 263 262 261 259 257 256 258 258 261 267 269 267 264 263 260 257 253 248 249 251 248 253
321 319 315 311 308 305 304 304 305 306 308 309 310 311 312 312 313 313 313 312 312 311 310 311 310 311 311 309 306 304 303 304 308 309 308 307 305 302 298 294 291 290 288 287 287 286 287 287 287 286 284 284 283 283 282 282 282 280 278 276 273 270 267 263 260 260 259 258 256 255 256 257 259 264 265 263 261 259 255 250 246 245 246 246 250
319 318 315 311 308 305 303 304 306 306 308 310 311 312 314 314 315 314 313 313 312 312 312 311 311 311 310 308 306 303 303 305 309 309 308 306 304 302 297 292 290 288 286 286 285 286 286 286 286 286 286 286 285 284 283 282 282 281 279 276 273 271 270 267 263 261 259 258 256 256 258 258 257 260 264 263 258 254 252 250 247 245 246 249 253
314 312 310 308 305 305 307 307 309 310 312 313 314 315 316 315 315 315 314 313 312 312 311 311 310 310 309 308 307 304 304 307 310 309 307 305 304 301 296 291 289 288 287 286 285 285 286 286 286 286 287 287 286 284 284 283 283 282 279 276 274 272 270 268 266 264 262 259 257 257 258 259 258 260 263 262 258 256 255 254 254 254 254 255 256
310 306 303 304 304 306 309 310 312 314 315 316 316 316 316 315 314 315 313 312 311 311 310 310 309 309 309 310 308 306 306 309 310 308 306 305 304 301 295 292 291 289 288 289 288 287 287 286 286 286 286 286 286 285 285 284 282 281 279 277 275 273 271 269 268 266 264 262 261 260 260 261 262 261 262 262 261 258 258 257 256 256 255 254 254
305 301 300 302 303 306 309 311 314 315 315 315 315 315 315 314 314 315 313 311 311 310 310 310 309 309 309 310 309 307 307 309 310 307 305 304 303 300 296 293 292 290 290 291 292 291 290 289 289 288 287 287 287 288 286 284 282 279 278 277 276 274 272 271 270 269 267 265 264 262 261 262 263 263 262 262 260 258 255 252 250 247 245 246 249
297 296 298 301 303 307 311 312 313 313 313 314 314 314 314 314 313 314 311 309 308 309 309 309 308 309 308 309 308 306 304 306 307 305 303 303 301 299 296 294 292 292 293 294 294 293 293 294 294 293 292 291 291 290 288 286 282 279 276 276 276 274 272 272 272 272 270 268 265 264 263 262 261 261 260 259 257 253 247 244 245 243 238 236 242
294 296 299 301 304 309 312 312 311 312 312 312 313 314 314 313 313 312 309 307 306 307 308 308 307 308 308 307 306 303 302 304 305 303 301 301 300 297 295 293 292 293 295 295 294 294 294 294 294 292 291 291 291 291 290 287 284 281 279 276 272 270 272 274 276 275 272 268 265 264 264 263 261 260 259 257 255 250 244 242 242 239 235 236 238
296 299 300 303 308 312 314 312 311 312 312 312 313 314 313 313 313 311 309 308 307 307 307 307 306 306 307 306 305 303 301 302 304 302 300 299 298 297 294 292 291 292 293 292 292 292 291 292 292 292 291 292 292 292 291 289 288 287 285 281 275 273 275 275 273 271 270 269 268 265 264 263 261 260 258 257 254 250 244 241 239 236 234 236 235
301 302 304 308 313 315 314 312 312 312 313 314 313 313 313 312 311 311 310 309 308 307 307 307 305 304 305 305 304 303 301 301 302 301 299 298 297 296 293 290 289 290 289 287 287 288 290 292 293 293 293 293 291 290 289 288 287 285 283 282 282 282 283 282 278 275 271 266 265 263 261 260 259 257 255 254 252 249 244 239 236 234 233 233 232
305 306 309 313 315 315 314 313 314 314 315 316 314 312 312 312 310 310 309 308 308 307 307 307 305 304 304 305 303 303 303 302 302 301 299 298 297 295 292 291 290 290 288 288 289 290 292 293 292 292 292 291 289 289 288 288 287 284 281 282 283 284 285 285 286 286 282 274 268 264 258 254 252 252 251 250 249 247 244 239 236 234 233 232 232
309 309 312 315 315 316 316 316 317 317 317 317 314 310 311 311 310 309 308 308 307 305 305 306 304 303 304 304 304 304 305 305 305 303 299 298 298 297 294 293 293 291 290 290 290 291 291 291 289 289 290 289 288 289 289 289 289 288 287 288 288 288 288 287 286 288 289 288 284 278 270 260 251 246 246 246 247 246 243 240 237 235 233 233 233
310 311 314 316 316 318 320 320 320 319 318 317 313 310 311 311 309 308 308 307 304 302 303 303 302 301 302 303 304 306 307 306 306 304 301 298 297 297 296 294 294 292 290 288 288 287 288 288 288 290 291 292 293 294 294 293 293 292 291 290 290 290 291 291 290 289 289 288 287 286 283 276 264 251 244 244 247 247 244 242 239 236 234 233 233
310 313 315 317 319 322 322 321 321 320 319 317 313 311 311 310 308 308 308 305 301 299 300 300 299 299 299 299 301 304 306 305 305 305 304 299 297 296 293 291 291 290 289 287 285 286 287 289 292 294 295 295 295 294 292 290 288 289 290 290 291 292 293 292 291 288 285 283 282 282 282 282 278 269 258 249 246 245 242 239 237 234 232 232 233
312 314 317 319 322 324 323 322 322 321 319 318 314 312 311 309 307 307 306 302 299 297 296 297 297 296 295 296 297 300 303 303 302 304 304 301 298 295 291 289 288 287 285 284 284 285 286 288 290 291 290 290 290 289 288 288 289 290 291 291 291 291 290 289 288 284 280 277 277 278 280 282 283 281 272 256 243 238 236 232 229 228 226 225 227
314 316 320 322 324 325 324 322 322 320 319 319 316 314 313 309 305 305 303 300 297 296 295 294 294 292 292 294 295 296 299 300 301 303 302 299 296 293 291 288 286 283 281 281 281 281 281 281 281 281 283 286 287 287 288 289 290 290 289 288 287 285 283 283 283 281 279 277 276 278 280 281 281 281 276 259 239 231 232 228 224 224 221 219 221
316 318 321 323 324 325 324 322 321 320 319 319 318 316 314 310 306 304 302 298 294 292 292 291 290 290 289 289 290 291 295 298 301 302 300 297 296 295 295 292 290 286 284 283 283 282 282 281 280 280 282 284 285 286 286 286 286 287 287 286 285 283 282 282 282 281 280 279 278 277 278 278 276 275 272 260 240 228 227 224 221 221 218 212 213
318 320 323 323 324 324 323 321 320 320 319 319 317 316 314 311 305 302 302 299 292 289 290 291 291 292 291 289 290 292 295 299 302 303 303 302 302 304 303 301 300 298 295 295 297 297 295 292 290 290 291 290 291 292 290 288 287 287 287 285 284 283 281 279 280 281 281 281 280 277 277 278 276 274 270 257 239 228 224 219 217 217 213 207 210
319 321 323 323 323 323 321 320 320 319 319 318 317 317 317 314 307 299 298 299 298 294 293 294 295 297 297 297 298 297 297 300 303 305 305 306 307 308 308 307 307 305 303 307 310 310 306 302 299 298 298 296 295 292 290 289 288 287 287 286 285 284 282 279 279 280 280 281 280 277 277 277 277 277 270 252 235 225 220 216 214 210 205 203 210
318 319 321 322 322 322 319 318 319 319 318 318 317 317 318 318 316 310 300 300 304 304 301 299 300 301 301 302 302 301 301 302 305 306 307 308 310 311 310 309 309 309 310 316 319 314 308 307 304 300 298 296 293 291 289 290 289 287 288 287 286 284 282 281 280 280 279 280 280 281 281 279 279 278 266 243 225 217 212 209 208 203 201 204 212
315 316 318 319 320 320 317 317 318 318 318 319 319 318 317 317 318 319 317 312 309 308 306 306 306 306 306 306 306 305 305 307 308 310 311 313 313 312 310 310 312 314 318 323 323 315 312 310 304 300 299 296 292 291 290 289 288 287 287 286 285 284 282 281 281 281 281 280 281 282 281 279 281 278 260 229 211 207 200 197 199 199 200 206 213
314 315 317 319 319 317 316 316 317 317 318 318 318 318 316 314 314 317 320 320 317 313 310 311 312 311 311 310 310 309 309 311 314 315 316 317 318 318 318 317 318 323 327 327 321 313 310 306 301 299 298 296 293 293 292 289 288 288 287 284 283 282 282 282 282 281 280 279 278 278 276 277 282 276 251 211 200 202 195 193 196 196 197 203 212
315 314 316 317 315 314 314 315 316 316 316 316 316 315 314 313 312 313 316 319 320 320 319 320 321 320 318 317 317 317 317 319 320 320 321 324 326 328 327 324 324 330 336 332 320 312 308 304 301 300 298 296 295 294 292 291 289 288 286 285 283 283 283 284 281 279 278 276 274 273 273 278 282 271 239 194 189 198 193 191 192 189 191 199 208
316 317 317 316 313 312 314 315 315 316 316 316 316 314 312 313 313 313 313 314 316 317 319 322 326 325 322 322 326 327 326 326 327 328 331 334 335 336 337 334 332 335 337 333 325 318 313 308 305 304 303 300 299 298 296 294 292 289 286 285 284 282 283 282 279 276 275 273 272 271 271 277 282 272 237 196 190 194 191 192 192 189 191 198 204
318 319 319 319 317 316 316 317 318 318 316 315 314 312 312 313 313 313 313 312 311 313 316 320 326 329 328 329 332 332 332 333 336 338 340 341 343 345 345 340 334 331 330 328 325 320 315 311 308 307 306 303 302 301 299 296 294 291 288 285 283 279 279 278 275 274 273 272 274 277 276 277 282 282 264 217 201 196 193 197 202 201 200 200 204
320 320 322 324 323 321 320 320 318 317 316 314 314 314 314 315 315 315 313 312 313 315 316 321 328 333 334 338 341 341 338 339 342 345 347 348 351 352 348 339 331 327 324 323 322 317 314 313 312 310 308 306 304 303 302 299 297 295 291 288 284 279 276 275 273 271 270 269 270 272 272 272 271 271 274 266 226 203 198 198 201 206 210 209 207
322 324 325 326 323 320 318 318 318 319 319 318 318 318 317 317 318 316 314 313 315 316 317 322 329 332 332 337 343 345 343 342 346 350 351 352 353 352 347 340 334 328 323 321 320 318 315 316 316 314 311 309 307 306 305 302 300 297 294 290 286 282 279 277 274 270 265 264 266 268 272 274 267 251 244 248 236 216 204 197 193 196 204 208 205
324 327 328 328 323 317 314 315 319 322 322 321 322 323 321 320 320 318 317 317 318 318 321 325 328 331 334 337 342 345 345 345 347 347 347 348 349 348 345 342 338 333 329 327 326 325 322 320 321 320 316 313 312 311 310 308 306 303 298 290 284 282 280 275 271 267 261 259 262 264 269 274 266 244 228 229 227 214 202 197 198 199 200 200 198
324 327 331 333 326 317 314 318 321 323 322 321 324 326 324 322 321 319 319 320 320 321 326 328 329 334 339 340 342 345 345 342 342 342 341 343 345 346 345 344 340 337 335 332 331 330 327 325 325 324 323 321 320 319 319 317 315 312 307 296 283 278 278 276 270 264 261 260 260 261 264 268 262 242 224 224 227 217 203 199 203 206 201 194 187
323 326 330 332 325 317 317 322 323 323 322 322 326 329 327 324 323 322 322 322 322 325 330 331 332 338 342 342 342 345 344 340 338 339 341 341 343 343 344 344 342 339 337 335 334 333 331 329 329 329 328 329 329 328 329 328 326 325 323 314 293 276 273 274 270 264 259 259 261 265 268 265 254 239 226 219 216 209 201 197 198 196 188 179 169
321 326 328 327 322 317 319 322 322 320 322 326 332 332 328 326 327 326 324 326 329 331 333 334 336 342 347 348 346 347 347 345 343 342 342 342 343 344 344 344 344 342 340 339 338 336 334 334 335 335 335 337 338 338 338 338 337 337 339 336 324 304 288 280 273 268 266 265 267 271 272 262 244 231 221 210 199 192 191 188 182 175 168 161 156
321 325 325 321 316 314 315 317 318 319 325 332 335 334 332 330 330 330 330 333 337 337 335 335 339 344 350 354 354 354 353 351 349 346 345 345 345 345 345 346 346 346 346 345 344 342 340 340 340 340 341 344 346 346 345 346 345 346 347 350 352 351 345 332 311 290 281 278 272 264 254 240 222 210 203 197 189 181 174 167 162 158 153 148 145
320 323 320 314 311 310 311 313 315 320 329 337 337 336 338 337 335 337 339 340 341 341 338 338 341 346 350 355 358 357 355 352 350 348 347 346 346 347 348 349 350 350 351 351 351 350 348 348 347 347 347 350 354 356 356 355 355 356 356 357 1 4 5 3 358 346 323 305 292 249 212 198 190 186 182 178 170 161 153 150 147 143 140 139 138
319 321 317 311 309 309 311 314 318 323 334 340 340 341 343 342 340 343 345 343 342 341 341 343 346 348 350 353 354 354 352 351 351 350 349 349 349 350 351 353 353 354 355 356 357 357 356 355 354 353 352 353 357 1 4 4 5 6 7 7 7 8 9 7 6 6 7 7 29 97 115 121 133 143 146 148 147 142 137 135 135 134 133 133 133
317 318 313 308 307 309 311 315 321 329 338 341 340 341 343 344 343 344 344 343 342 341 343 347 351 351 351 351 352 351 351 352 351 351 351 352 353 354 356 357 358 359 0 2 3 3 3 2 0 359 358 358 359 2 6 9 11 12 15 16 15 14 14 13 13 16 22 31 54 94 111 112 112 117 121 125 127 126 124 125 128 129 128 127 127
315 314 309 304 303 305 308 312 320 329 335 338 338 339 340 341 342 343 343 343 344 345 347 351 353 352 352 352 351 351 352 352 351 352 353 355 356 358 359 1 1 3 5 7 9 9 9 8 6 5 5 5 5 5 8 12 14 16 18 19 18 16 16 17 19 23 30 39 56 82 103 110 113 117 121 121 119 117 117 119 121 122 124 125 124
312 310 306 302 300 300 302 309 317 324 328 332 334 336 338 338 339 340 342 343 346 349 351 352 352 352 352 352 352 352 353 353 354 355 356 357 359 1 1 2 3 4 6 8 11 12 13 12 10 9 9 10 11 10 11 13 15 17 18 19 18 17 17 20 24 28 32 41 58 78 94 102 107 112 117 119 120 118 116 116 118 120 121 122 123
308 308 304 301 299 298 300 307 314 318 322 325 327 330 334 335 335 337 340 343 346 350 350 350 350 350 350 350 351 352 353 354 356 357 358 359 1 2 3 4 5 5 6 8 10 12 14 15 15 14 13 13 14 15 15 15 17 19 19 19 19 19 21 24 27 31 35 45 61 77 89 97 101 105 109 113 117 119 119 119 121 122 121 121 122
303 304 303 300 299 298 299 303 308 311 314 317 319 322 327 329 330 334 338 340 343 346 346 347 347 347 348 348 349 350 352 354 355 356 357 359 0 2 3 4 5 6 7 8 9 11 13 16 17 18 18 17 17 17 17 17 18 20 21 21 21 23 25 28 30 34 41 51 62 73 84 92 96 101 105 109 113 115 117 118 120 121 121 121 122
297 299 299 297 297 297 298 301 305 306 308 311 313 316 320 322 325 330 333 335 338 340 341 342 342 342 343 345 346 347 349 351 352 353 356 358 360 1 3 4 5 5 6 7 9 12 14 15 17 19 19 19 18 18 18 18 19 20 21 23 24 26 28 31 32 35 41 50 61 71 79 86 90 93 98 105 109 110 110 112 116 118 118 119 121